Location: Doux
(49.5045°N, 4.4321°E)
Time: 21:36:40
(UTC+00:00)

Cosmos 1850 Rocket - Pass Details

Date: 23 May 2024
Orbit: 753 x 782 km, 74.0° (Epoch: 14 June)

Event Time Altitude Azimuth Distance (km) Brightness Sun altitude
Exits shadow 01:46:17 21° 198° (SSW) 1,683 5.2 -14.4°
Maximum altitude 01:49:53 84° 113° (ESE) 784 4.0 -14.1°
Drops below altitude 10° 01:55:10 10° 25° (NNE) 2,321 7.9 -13.6°
Sets 01:57:32 0° 25° (NNE) 3,247 9.1 -13.4°
